Time,TemperatureF,DewpointF,PressureIn,WindDirection,WindDirectionDegrees,WindSpeedMPH,WindSpeedGustMPH,Humidity,HourlyPrecipIn,Conditions,Clouds,dailyrainin,SoftwareType,DateUTC
2013-04-16 00:08:00,22.9,20.0,30.14,North,351,0.0,0.0,90,0.00,,,0.00,weatherlink.com 1.10,2013-04-16 06:08:00,
2013-04-16 00:23:00,22.9,20.0,30.15,North,351,0.0,0.0,90,0.00,,,0.00,weatherlink.com 1.10,2013-04-16 06:23:00,
2013-04-16 00:38:00,23.0,21.0,30.14,North,351,0.0,0.0,90,0.00,,,0.00,weatherlink.com 1.10,2013-04-16 06:38:00,
2013-04-16 00:53:00,23.0,21.0,30.15,North,351,0.0,0.0,90,0.00,,,0.00,weatherlink.com 1.10,2013-04-16 06:53:00,
2013-04-16 01:08:00,22.9,20.0,30.15,North,351,0.0,0.0,90,0.00,,,0.00,weatherlink.com 1.10,2013-04-16 07:08:00,
2013-04-16 01:23:00,22.9,20.0,30.14,North,351,0.0,0.0,90,0.00,,,0.00,weatherlink.com 1.10,2013-04-16 07:23:00,
2013-04-16 01:38:00,23.0,21.0,30.14,North,351,0.0,0.0,90,0.00,,,0.00,weatherlink.com 1.10,2013-04-16 07:38:00,
2013-04-16 01:53:00,23.0,21.0,30.15,North,351,0.0,0.0,90,0.00,,,0.00,weatherlink.com 1.10,2013-04-16 07:53:00,
2013-04-16 02:08:00,23.0,21.0,30.14,North,351,0.0,0.0,90,0.00,,,0.00,weatherlink.com 1.10,2013-04-16 08:08:00,
2013-04-16 02:23:00,23.0,21.0,30.14,North,351,0.0,0.0,90,0.00,,,0.00,weatherlink.com 1.10,2013-04-16 08:23:00,
2013-04-16 02:38:00,23.0,21.0,30.14,North,351,0.0,0.0,90,0.00,,,0.00,weatherlink.com 1.10,2013-04-16 08:38:00,
2013-04-16 02:53:00,23.1,21.0,30.14,North,351,0.0,0.0,90,0.00,,,0.00,weatherlink.com 1.10,2013-04-16 08:53:00,
2013-04-16 03:08:00,23.1,21.0,30.13,North,351,0.0,0.0,90,0.00,,,0.00,weatherlink.com 1.10,2013-04-16 09:08:00,
2013-04-16 03:23:00,23.1,21.0,30.13,North,351,0.0,0.0,91,0.00,,,0.00,weatherlink.com 1.10,2013-04-16 09:23:00,
2013-04-16 03:38:00,23.2,21.0,30.13,North,351,0.0,0.0,91,0.00,,,0.00,weatherlink.com 1.10,2013-04-16 09:38:00,
2013-04-16 03:53:00,23.1,21.0,30.12,North,351,0.0,0.0,91,0.00,,,0.00,weatherlink.com 1.10,2013-04-16 09:53:00,
2013-04-16 04:08:00,23.1,21.0,30.12,North,351,0.0,0.0,91,0.00,,,0.00,weatherlink.com 1.10,2013-04-16 10:08:00,
2013-04-16 04:23:00,23.1,21.0,30.12,North,351,0.0,0.0,90,0.00,,,0.00,weatherlink.com 1.10,2013-04-16 10:23:00,
2013-04-16 04:38:00,23.1,21.0,30.11,North,351,0.0,0.0,90,0.00,,,0.00,weatherlink.com 1.10,2013-04-16 10:38:00,
2013-04-16 04:53:00,23.1,21.0,30.11,North,351,0.0,0.0,90,0.00,,,0.00,weatherlink.com 1.10,2013-04-16 10:53:00,
2013-04-16 05:08:00,23.0,21.0,30.11,North,351,0.0,0.0,90,0.00,,,0.00,weatherlink.com 1.10,2013-04-16 11:08:00,
2013-04-16 05:23:00,23.0,21.0,30.11,North,351,0.0,0.0,90,0.00,,,0.00,weatherlink.com 1.10,2013-04-16 11:23:00,
2013-04-16 05:38:00,23.1,21.0,30.11,North,351,0.0,0.0,90,0.00,,,0.00,weatherlink.com 1.10,2013-04-16 11:38:00,
2013-04-16 05:53:00,23.2,21.0,30.11,North,351,0.0,0.0,90,0.00,,,0.00,weatherlink.com 1.10,2013-04-16 11:53:00,
2013-04-16 06:08:00,23.3,21.0,30.11,North,351,0.0,0.0,90,0.00,,,0.00,weatherlink.com 1.10,2013-04-16 12:08:00,
2013-04-16 06:23:00,23.3,21.0,30.10,North,351,0.0,0.0,90,0.00,,,0.00,weatherlink.com 1.10,2013-04-16 12:23:00,
2013-04-16 06:38:00,23.3,21.0,30.10,North,351,0.0,0.0,90,0.00,,,0.00,weatherlink.com 1.10,2013-04-16 12:38:00,
2013-04-16 06:53:00,23.3,21.0,30.10,North,351,0.0,0.0,90,0.00,,,0.00,weatherlink.com 1.10,2013-04-16 12:53:00,
2013-04-16 07:08:00,23.5,21.0,30.11,North,351,0.0,0.0,90,0.00,,,0.00,weatherlink.com 1.10,2013-04-16 13:08:00,
2013-04-16 07:23:00,23.7,21.0,30.11,North,351,0.0,0.0,90,0.00,,,0.00,weatherlink.com 1.10,2013-04-16 13:23:00,
2013-04-16 07:38:00,23.9,21.0,30.11,North,351,0.0,0.0,89,0.00,,,0.00,weatherlink.com 1.10,2013-04-16 13:38:00,
2013-04-16 07:53:00,24.1,21.0,30.12,North,351,0.0,0.0,89,0.00,,,0.00,weatherlink.com 1.10,2013-04-16 13:53:00,
2013-04-16 08:08:00,24.4,22.0,30.11,North,351,0.0,0.0,89,0.00,,,0.00,weatherlink.com 1.10,2013-04-16 14:08:00,
2013-04-16 08:23:00,24.7,22.0,30.11,North,351,0.0,0.0,89,0.00,,,0.00,weatherlink.com 1.10,2013-04-16 14:23:00,
2013-04-16 08:38:00,25.0,22.0,30.11,North,355,0.0,0.0,89,0.00,,,0.00,weatherlink.com 1.10,2013-04-16 14:38:00,
2013-04-16 08:53:00,25.1,22.0,30.11,North,355,0.0,0.0,89,0.00,,,0.00,weatherlink.com 1.10,2013-04-16 14:53:00,
2013-04-16 09:08:00,25.7,23.0,30.10,North,355,0.0,0.0,89,0.00,,,0.00,weatherlink.com 1.10,2013-04-16 15:08:00,
2013-04-16 09:24:00,26.4,24.0,30.10,NNE,15,0.0,2.0,89,0.00,,,0.00,weatherlink.com 1.10,2013-04-16 15:24:00,
2013-04-16 09:39:00,27.4,24.0,30.09,North,9,1.0,2.0,88,0.00,,,0.00,weatherlink.com 1.10,2013-04-16 15:39:00,
2013-04-16 09:54:00,28.1,25.0,30.09,NW,326,1.0,4.0,86,0.00,,,0.00,weatherlink.com 1.10,2013-04-16 15:54:00,
2013-04-16 10:09:00,28.7,25.0,30.09,North,355,1.0,4.0,85,0.00,,,0.00,weatherlink.com 1.10,2013-04-16 16:09:00,
2013-04-16 10:24:00,28.8,25.0,30.08,NW,317,0.0,5.0,85,0.00,,,0.00,weatherlink.com 1.10,2013-04-16 16:24:00,
2013-04-16 10:39:00,30.2,26.0,30.07,NNE,17,2.0,4.0,84,0.00,,,0.00,weatherlink.com 1.10,2013-04-16 16:39:00,
2013-04-16 10:54:00,30.2,26.0,30.07,NNW,343,1.0,6.0,84,0.00,,,0.00,weatherlink.com 1.10,2013-04-16 16:54:00,
2013-04-16 11:09:00,31.2,26.0,30.06,NW,312,2.0,4.0,82,0.00,,,0.00,weatherlink.com 1.10,2013-04-16 17:09:00,
2013-04-16 11:24:00,31.4,27.0,30.05,NNW,346,2.0,4.0,82,0.00,,,0.00,weatherlink.com 1.10,2013-04-16 17:24:00,
2013-04-16 11:39:00,32.3,27.0,30.05,NNW,344,3.0,4.0,81,0.00,,,0.00,weatherlink.com 1.10,2013-04-16 17:39:00,
2013-04-16 11:54:00,32.5,27.0,30.04,WNW,301,6.0,6.0,81,0.00,,,0.00,weatherlink.com 1.10,2013-04-16 17:54:00,
2013-04-16 12:09:00,32.3,27.0,30.03,NW,309,2.0,7.0,81,0.00,,,0.00,weatherlink.com 1.10,2013-04-16 18:09:00,
2013-04-16 12:24:00,32.3,27.0,30.02,NNW,346,3.0,6.0,80,0.00,,,0.00,weatherlink.com 1.10,2013-04-16 18:24:00,
2013-04-16 12:39:00,32.0,27.0,30.01,NNW,340,2.0,6.0,80,0.00,,,0.00,weatherlink.com 1.10,2013-04-16 18:39:00,
2013-04-16 12:54:00,31.7,27.0,30.00,NNW,343,4.0,8.0,81,0.00,,,0.00,weatherlink.com 1.10,2013-04-16 18:54:00,
2013-04-16 13:09:00,31.9,27.0,30.00,North,5,3.0,7.0,82,0.00,,,0.00,weatherlink.com 1.10,2013-04-16 19:09:00,
2013-04-16 13:24:00,31.6,26.0,29.99,North,355,3.0,7.0,79,0.00,,,0.00,weatherlink.com 1.10,2013-04-16 19:24:00,
2013-04-16 13:39:00,32.5,27.0,30.00,NNE,20,2.0,5.0,80,0.00,,,0.00,weatherlink.com 1.10,2013-04-16 19:39:00,
2013-04-16 13:54:00,31.8,27.0,29.99,NNE,22,3.0,8.0,81,0.00,,,0.00,weatherlink.com 1.10,2013-04-16 19:54:00,
2013-04-16 14:09:00,31.6,27.0,29.99,North,360,4.0,8.0,82,0.00,,,0.00,weatherlink.com 1.10,2013-04-16 20:09:00,
2013-04-16 14:24:00,30.7,26.0,29.98,NNW,342,5.0,9.0,81,0.00,,,0.00,weatherlink.com 1.10,2013-04-16 20:24:00,
2013-04-16 14:39:00,30.8,26.0,29.98,WNW,292,3.0,8.0,82,0.00,,,0.00,weatherlink.com 1.10,2013-04-16 20:39:00,
2013-04-16 14:54:00,31.4,26.0,29.98,NNW,337,4.0,7.0,81,0.00,,,0.00,weatherlink.com 1.10,2013-04-16 20:54:00,
2013-04-16 15:09:00,31.4,26.0,29.98,North,9,4.0,10.0,81,0.00,,,0.00,weatherlink.com 1.10,2013-04-16 21:09:00,
2013-04-16 15:24:00,31.6,26.0,29.97,North,355,7.0,10.0,80,0.00,,,0.00,weatherlink.com 1.10,2013-04-16 21:24:00,
2013-04-16 15:39:00,31.9,26.0,29.97,North,360,6.0,10.0,80,0.00,,,0.00,weatherlink.com 1.10,2013-04-16 21:39:00,
2013-04-16 15:54:00,31.4,26.0,29.98,NNW,344,4.0,11.0,80,0.00,,,0.00,weatherlink.com 1.10,2013-04-16 21:54:00,
2013-04-16 16:09:00,31.5,26.0,29.98,North,355,6.0,8.0,81,0.00,,,0.00,weatherlink.com 1.10,2013-04-16 22:09:00,
2013-04-16 16:24:00,31.8,27.0,29.98,North,5,2.0,10.0,81,0.00,,,0.00,weatherlink.com 1.10,2013-04-16 22:24:00,
2013-04-16 16:39:00,32.1,27.0,29.98,North,5,6.0,10.0,80,0.00,,,0.00,weatherlink.com 1.10,2013-04-16 22:39:00,
2013-04-16 16:54:00,32.3,27.0,29.99,North,10,4.0,9.0,80,0.00,,,0.00,weatherlink.com 1.10,2013-04-16 22:54:00,
2013-04-16 17:09:00,32.3,27.0,29.99,NNW,333,3.0,9.0,80,0.00,,,0.00,weatherlink.com 1.10,2013-04-16 23:09:00,
2013-04-16 17:24:00,32.0,27.0,30.00,NNW,342,6.0,12.0,82,0.00,,,0.00,weatherlink.com 1.10,2013-04-16 23:24:00,
2013-04-16 17:39:00,32.1,28.0,30.00,NNW,328,6.0,9.0,83,0.00,,,0.00,weatherlink.com 1.10,2013-04-16 23:39:00,
2013-04-16 17:54:00,32.3,28.0,30.01,NNW,348,3.0,11.0,83,0.00,,,0.00,weatherlink.com 1.10,2013-04-16 23:54:00,
2013-04-16 18:09:00,32.4,28.0,30.01,North,349,4.0,10.0,83,0.00,,,0.00,weatherlink.com 1.10,2013-04-17 00:09:00,
2013-04-16 18:24:00,32.6,28.0,30.01,North,360,4.0,13.0,83,0.00,,,0.00,weatherlink.com 1.10,2013-04-17 00:24:00,
2013-04-16 18:39:00,32.6,28.0,30.01,North,5,4.0,9.0,83,0.00,,,0.00,weatherlink.com 1.10,2013-04-17 00:39:00,
2013-04-16 18:54:00,32.8,28.0,30.01,North,360,6.0,14.0,83,0.00,,,0.00,weatherlink.com 1.10,2013-04-17 00:54:00,
2013-04-16 19:09:00,32.8,28.0,30.02,NNW,333,5.0,10.0,83,0.00,,,0.00,weatherlink.com 1.10,2013-04-17 01:09:00,
2013-04-16 19:24:00,32.9,28.0,30.03,North,5,5.0,10.0,83,0.00,,,0.00,weatherlink.com 1.10,2013-04-17 01:24:00,
2013-04-16 19:39:00,32.9,28.0,30.04,North,5,2.0,9.0,83,0.00,,,0.00,weatherlink.com 1.10,2013-04-17 01:39:00,
2013-04-16 19:54:00,32.7,28.0,30.04,North,360,1.0,7.0,83,0.00,,,0.00,weatherlink.com 1.10,2013-04-17 01:54:00,
2013-04-16 20:09:00,32.5,28.0,30.05,North,360,2.0,6.0,84,0.00,,,0.00,weatherlink.com 1.10,2013-04-17 02:09:00,
2013-04-16 20:24:00,32.6,28.0,30.06,North,5,4.0,9.0,84,0.00,,,0.00,weatherlink.com 1.10,2013-04-17 02:24:00,
2013-04-16 20:40:00,32.4,28.0,30.06,NNW,346,5.0,8.0,84,0.00,,,0.00,weatherlink.com 1.10,2013-04-17 02:40:00,
2013-04-16 20:55:00,32.1,28.0,30.07,NNE,20,3.0,7.0,85,0.00,,,0.00,weatherlink.com 1.10,2013-04-17 02:55:00,
2013-04-16 21:10:00,31.9,28.0,30.08,NW,323,2.0,8.0,86,0.00,,,0.00,weatherlink.com 1.10,2013-04-17 03:10:00,
2013-04-16 21:25:00,31.2,28.0,30.08,NNW,344,3.0,10.0,86,0.00,,,0.00,weatherlink.com 1.10,2013-04-17 03:25:00,
2013-04-16 21:40:00,30.7,27.0,30.08,North,355,3.0,6.0,87,0.00,,,0.00,weatherlink.com 1.10,2013-04-17 03:40:00,
2013-04-16 21:55:00,29.9,27.0,30.09,NNE,24,5.0,9.0,88,0.00,,,0.00,weatherlink.com 1.10,2013-04-17 03:55:00,
2013-04-16 22:10:00,29.5,27.0,30.09,NNE,16,4.0,7.0,89,0.00,,,0.00,weatherlink.com 1.10,2013-04-17 04:10:00,
2013-04-16 22:25:00,29.0,26.0,30.09,North,5,5.0,11.0,88,0.00,,,0.00,weatherlink.com 1.10,2013-04-17 04:25:00,
2013-04-16 22:40:00,28.6,26.0,30.09,NNW,346,5.0,8.0,89,0.00,,,0.00,weatherlink.com 1.10,2013-04-17 04:40:00,
2013-04-16 22:55:00,28.4,26.0,30.09,NNE,17,2.0,8.0,89,0.00,,,0.00,weatherlink.com 1.10,2013-04-17 04:55:00,
2013-04-16 23:10:00,28.3,26.0,30.10,NNW,338,6.0,8.0,89,0.00,,,0.00,weatherlink.com 1.10,2013-04-17 05:10:00,
2013-04-16 23:25:00,28.2,25.0,30.09,NNE,16,3.0,9.0,89,0.00,,,0.00,weatherlink.com 1.10,2013-04-17 05:25:00,
2013-04-16 23:40:00,28.2,25.0,30.09,North,360,4.0,7.0,89,0.00,,,0.00,weatherlink.com 1.10,2013-04-17 05:40:00,
2013-04-16 23:55:00,28.1,26.0,30.09,NNW,346,2.0,7.0,90,0.00,,,0.00,weatherlink.com 1.10,2013-04-17 05:55:00,